Find Starlink 34976

NORAD ID: 65209 Int'l Des: 2025-176 Owner: SPXS Country: US Constellation: starlink operational
LEOCIRCULAR

リアルタイム位置

3D地球を読み込み中...

Starlink 34976について

説明を読み込み中...

次回通過

Passes for default location (London). Set your location on the main map for personalized predictions.

高度履歴

Loading altitude history...

軌道要素

1 65209U 25176M 26107.01284700 .00014743 00000-0 50888-3 0 9992
2 65209 53.1595 335.0182 0001458 96.2519 263.8648 15.30201599 38984
Epoch: Apr 17, 2026 • Age: 18 hours

現在のステータス

高度 476.7 km
速度 7.63 km/s
衛星直下点 33.91°N, 3.49°E
打ち上げ日 Aug 14, 2025
運用期間 0.6 years
タイプ internet

技術仕様

分類 Payload
質量 575.00 kg
乾燥質量 530.00 kg
総質量 575.00 kg
長さ 0.30 m
直径 4.10 m
スパン 29.00 m
形状 Box + pan
製造者 SPXS
バスタイプ Starlink V2MO
フェーズステータス In Orbit
所有者/国 SPXS/US

Most Searched